Date String (YYYY-MM-DD hh:mm:ss) UTC,Instrument flags,Ambient pressure (hPa),Sample flow (lpm),Bypass flow (lpm),Sample temperature (°C),Ambient temperature (°C),ASC tube jacket temperature (°C),LED temperature (°C),Box temperature (°C),Sample RH (%),Span deviation,Mass concentration (μg/m³),Mass concentration (μg/m³),Mass concentration (μg/m³)
DateTimeUTC,F1_M11,P_M11,Q1_M11,Q2_M11,T1_M11,T2_M11,T3_M11,T4_M11,T5_M11,U1_M11,ZSPAN_M11,X0_M11,X2_M11,X1_M11
2021-12-27 02:00:00,,0814.0,5.01,0.00,21.2,20.5,00.0,30.3,22.6,11.0,0000.0,0004.64,0000.89,0000.34
2021-12-27 02:01:00,,0814.3,5.01,0.00,21.1,20.5,00.0,30.3,22.6,11.0,0000.0,0004.78,0000.93,0000.36
2021-12-27 02:02:00,,0814.2,5.01,0.00,21.1,20.4,00.0,30.3,22.6,11.0,0000.0,0004.88,0000.94,0000.38
2021-12-27 02:03:00,,0814.1,4.99,0.00,21.1,20.4,00.0,30.3,22.6,10.9,0000.0,0005.06,0000.99,0000.40
2021-12-27 02:04:00,,0814.3,5.02,0.00,21.0,20.4,00.0,30.2,22.6,10.9,0000.0,0004.01,0000.98,0000.42
2021-12-27 02:05:00,,0814.2,4.99,0.00,21.0,20.4,00.0,30.2,22.6,10.8,0000.0,0003.67,0000.99,0000.45
2021-12-27 02:06:00,,0814.1,5.01,0.00,21.0,20.3,00.0,30.2,22.5,10.8,0000.0,0003.65,0001.03,0000.49
2021-12-27 02:07:00,,0814.1,4.98,0.00,21.0,20.6,00.0,30.2,22.6,09.8,0000.0,0002.97,0001.05,0000.51
2021-12-27 02:08:00,,0814.4,5.00,0.00,21.2,21.6,00.0,30.2,23.0,08.7,0000.0,0002.96,0001.00,0000.50
2021-12-27 02:09:00,,0814.4,5.00,0.00,21.4,22.5,00.0,30.3,23.4,09.2,0000.0,0002.79,0000.92,0000.48
2021-12-27 02:10:00,,0814.4,5.00,0.00,21.5,22.5,00.0,30.3,23.4,10.1,0000.0,0002.54,0000.93,0000.48
2021-12-27 02:11:00,,0814.5,5.00,0.00,21.5,22.2,00.0,30.3,23.3,10.2,0000.0,0002.51,0000.93,0000.48
2021-12-27 02:12:00,,0814.4,4.99,0.00,21.5,21.9,00.0,30.4,23.2,10.0,0000.0,0002.67,0000.95,0000.48
2021-12-27 02:13:00,,0814.4,4.99,0.00,21.4,21.6,00.0,30.4,23.1,09.5,0000.0,0002.59,0000.92,0000.47
2021-12-27 02:14:00,,0814.3,5.02,0.00,21.4,21.4,00.0,30.4,23.0,09.7,0000.0,0002.58,0000.93,0000.47
2021-12-27 02:15:00,,0814.4,4.99,0.00,21.4,21.2,00.0,30.4,22.9,09.9,0000.0,0002.71,0001.02,0000.51
2021-12-27 02:16:00,,0814.4,5.01,0.00,21.3,21.1,00.0,30.4,22.9,10.0,0000.0,0002.98,0001.11,0000.57
2021-12-27 02:17:00,,0814.4,5.00,0.00,21.3,21.0,00.0,30.3,22.9,09.9,0000.0,0003.05,0001.15,0000.64
2021-12-27 02:18:00,,0814.4,5.01,0.00,21.3,20.9,00.0,30.3,23.0,09.9,0000.0,0003.28,0001.23,0000.66
2021-12-27 02:19:00,,0814.4,4.99,0.00,21.4,20.9,00.0,30.3,23.0,09.7,0000.0,0003.18,0001.26,0000.67
2021-12-27 02:20:00,,0814.6,5.01,0.00,21.4,20.9,00.0,30.4,23.0,09.7,0000.0,0002.98,0001.24,0000.68
2021-12-27 02:21:00,,0814.9,5.00,0.00,21.4,20.9,00.0,30.4,23.1,09.7,0000.0,0002.88,0001.21,0000.67
2021-12-27 02:22:00,,0814.8,5.00,0.00,21.4,20.9,00.0,30.4,23.0,09.1,0000.0,0002.88,0001.21,0000.68
2021-12-27 02:23:00,,0814.4,5.01,0.00,21.3,20.8,00.0,30.4,22.9,08.2,0000.0,0002.75,0001.19,0000.66
2021-12-27 02:24:00,,0814.5,4.99,0.00,21.3,20.8,00.0,30.3,22.9,08.1,0000.0,0003.10,0001.20,0000.66
2021-12-27 02:25:00,,0814.9,5.00,0.00,21.3,20.7,00.0,30.3,22.8,08.2,0000.0,0003.09,0001.17,0000.63
2021-12-27 02:26:00,,0815.1,5.00,0.00,21.3,20.7,00.0,30.3,22.8,08.7,0000.0,0003.20,0001.07,0000.57
2021-12-27 02:27:00,,0815.1,5.00,0.00,21.3,20.6,00.0,30.3,22.8,09.0,0000.0,0005.11,0000.95,0000.49
2021-12-27 02:28:00,,0814.7,5.00,0.00,21.3,20.7,00.0,30.3,22.9,09.2,0000.0,0005.53,0000.86,0000.39
2021-12-27 02:29:00,,0814.9,5.00,0.00,21.3,20.7,00.0,30.3,22.9,09.2,0000.0,0005.40,0000.80,0000.36
2021-12-27 02:30:00,,0815.1,5.01,0.00,21.3,20.6,00.0,30.3,22.9,08.4,0000.0,0005.12,0000.76,0000.35
2021-12-27 02:31:00,,0815.1,5.00,0.00,21.2,20.6,00.0,30.3,22.8,08.1,0000.0,0005.13,0000.76,0000.35
2021-12-27 02:32:00,,0814.7,5.01,0.00,21.2,20.8,00.0,30.3,22.9,08.1,0000.0,0005.10,0000.76,0000.34
2021-12-27 02:33:00,,0814.9,4.99,0.00,21.4,21.6,00.0,30.3,23.2,08.0,0000.0,0005.04,0000.74,0000.34
2021-12-27 02:34:00,,0814.9,5.00,0.00,21.5,22.4,00.0,30.4,23.5,07.7,0000.0,0004.95,0000.74,0000.34
2021-12-27 02:35:00,,0814.9,5.00,0.00,21.7,22.5,00.0,30.4,23.6,07.6,0000.0,0004.61,0000.72,0000.34
2021-12-27 02:36:00,,0814.5,4.99,0.00,21.7,22.2,00.0,30.5,23.5,07.6,0000.0,0005.49,0000.73,0000.34
2021-12-27 02:37:00,,0814.5,5.01,0.00,21.6,22.0,00.0,30.5,23.4,07.7,0000.0,0005.92,0000.75,0000.34
2021-12-27 02:38:00,,0814.7,4.99,0.00,21.6,21.8,00.0,30.5,23.4,08.0,0000.0,0003.74,0000.75,0000.33
2021-12-27 02:39:00,,0814.7,5.01,0.00,21.6,21.6,00.0,30.5,23.3,08.0,0000.0,0003.16,0000.74,0000.33
2021-12-27 02:40:00,,0814.6,4.99,0.00,21.6,21.4,00.0,30.5,23.3,07.9,0000.0,0003.13,0000.75,0000.33
2021-12-27 02:41:00,,0814.5,5.01,0.00,21.6,21.3,00.0,30.5,23.2,07.8,0000.0,0003.15,0000.76,0000.32
2021-12-27 02:42:00,,0814.5,4.98,0.00,21.6,21.2,00.0,30.5,23.2,07.8,0000.0,0003.22,0000.78,0000.31
2021-12-27 02:43:00,,0814.7,5.00,0.00,21.6,21.1,00.0,30.5,23.2,07.8,0000.0,0003.36,0000.80,0000.32
2021-12-27 02:44:00,,0814.6,5.01,0.00,21.5,21.0,00.0,30.5,23.1,07.8,0000.0,0003.52,0000.81,0000.31
2021-12-27 02:45:00,,0815.0,5.00,0.00,21.5,20.9,00.0,30.5,23.1,07.8,0000.0,0003.95,0000.78,0000.30
2021-12-27 02:46:00,,0815.1,5.00,0.00,21.5,20.9,00.0,30.5,23.1,07.9,0000.0,0003.94,0000.76,0000.30
2021-12-27 02:47:00,,0815.0,4.99,0.00,21.5,20.9,00.0,30.5,23.1,07.9,0000.0,0003.26,0000.74,0000.31
2021-12-27 02:48:00,,0815.1,5.00,0.00,21.5,20.9,00.0,30.5,23.1,07.9,0000.0,0002.22,0000.71,0000.31
2021-12-27 02:49:00,,0815.2,5.00,0.00,21.5,20.9,00.0,30.5,23.1,07.8,0000.0,0002.13,0000.67,0000.30
2021-12-27 02:50:00,,0815.1,5.01,0.00,21.5,20.8,00.0,30.5,23.1,07.8,0000.0,0002.10,0000.67,0000.29
2021-12-27 02:51:00,,0814.9,4.99,0.00,21.5,20.8,00.0,30.5,23.1,07.9,0000.0,0002.18,0000.69,0000.29
2021-12-27 02:52:00,,0815.0,5.02,0.00,21.5,20.8,00.0,30.5,23.1,07.9,0000.0,0002.80,0000.67,0000.28
2021-12-27 02:53:00,,0815.0,4.98,0.00,21.5,20.9,00.0,30.5,23.1,07.9,0000.0,0003.29,0000.66,0000.28
2021-12-27 02:54:00,,0814.8,5.01,0.00,21.5,20.9,00.0,30.5,23.1,07.9,0000.0,0003.28,0000.68,0000.28
2021-12-27 02:55:00,,0815.2,5.00,0.00,21.5,20.9,00.0,30.5,23.1,07.9,0000.0,0003.13,0000.66,0000.28
2021-12-27 02:56:00,,0815.2,5.02,0.00,21.5,20.9,00.0,30.5,23.1,07.9,0000.0,0002.56,0000.66,0000.29
2021-12-27 02:57:00,,0815.2,4.99,0.00,21.5,21.4,00.0,30.5,23.3,07.9,0000.0,0002.58,0000.67,0000.29
2021-12-27 02:58:00,,0815.2,5.00,0.00,21.7,22.2,00.0,30.6,23.6,07.8,0000.0,0002.56,0000.69,0000.29
2021-12-27 02:59:00,,0815.0,5.00,0.00,21.8,22.8,00.0,30.6,23.9,07.7,0000.0,0002.66,0000.74,0000.29
